Location: Gälforsberget
(66.6500°N, 22.4167°E)
Time: 16:53:50
(UTC+00:00)

CZ-2C R/B - Pass Details

Date: 11 April 2026
Orbit: 629 x 691 km, 98.1° (Epoch: 16 May)

Event Time Altitude Azimuth Distance (km) Brightness Sun altitude
Rises 21:43:36 0° 20° (NNE) 2,991 8.1 -14.3°
Reaches altitude 10° 21:45:53 10° 24° (NNE) 2,067 7.1 -14.3°
Maximum altitude 21:50:19 57° 104° (ESE) 765 3.9 -14.4°
Enters shadow 21:52:50 24° 175° (S) 1,327 4.6 -14.4°
